This demonstration page uses our WeatherBlox Daily Observations layout. Learn more.

Left ArrowRight Arrow

41.86663, -103.66717

Hourly Observations for September 23, 2015

Temp ( °F °C ) Dew Point ( °F °C ) Humidity (%) Winds ( mph kmh ) Pressure ( in mb ) Visibility ( mi km ) Precip ( " mm )
12:53 am 00:53 Cloudy 61 16.1 58 14.4 90 90 E 3 6 29.95 1014 10 16 N/A
1:53 am 01:53 Cloudy 59 15 56 13.3 90 90 NNE 5 7 29.95 1014 10 16 N/A
2:53 am 02:53 Cloudy 59 15 57 13.9 93 93 N N/A 29.95 1014 8 13 N/A
3:53 am 03:53 Cloudy 58 14.4 56 13.3 93 93 ENE 7 11 29.95 1014 8 13 N/A
4:01 am 04:01 Cloudy 58 14.4 56 13.3 93 93 ENE 6 9 29.97 1015 9 14 N/A
4:53 am 04:53 Cloudy 59 15 56 13.3 90 90 ENE 3 6 29.94 1014 10 16 N/A
5:10 am 05:10 Cloudy 59 15 55 13 88 88 N N/A 29.91 1013 10 16 N/A
5:51 am 05:51 Cloudy 59 15 57 14 94 94 N N/A 29.91 1013 10 16 N/A
5:53 am 05:53 Cloudy 59 15 57 13.9 93 93 N N/A 29.94 1014 10 16 N/A
6:53 am 06:53 Cloudy 59 15 57 13.9 93 93 N N/A 29.95 1014 7 11 N/A
7:25 am 07:25 Cloudy with Mist and Fog 59 15 57 13.9 93 93 NW 5 7 29.91 1013 4 6 N/A
7:53 am 07:53 Cloudy with Mist and Fog 59 15 58 14.4 96 96 NW 3 6 29.97 1015 6 10 N/A
8:10 am 08:10 Cloudy 61 16 57 14 88 88 NW 5 7 29.94 1014 8 13 N/A
8:44 am 08:44 Cloudy 63 17 57 14 83 83 WNW 3 6 29.91 1013 10 16 N/A
8:53 am 08:53 Cloudy 62 16.7 58 14.4 86 86 W 5 7 29.97 1015 10 16 N/A
9:29 am 09:29 Mostly Cloudy 65 18.3 58 14.4 78 78 VRB 3 6 29.91 1013 10 16 N/A
9:39 am 09:39 Cloudy 64 17.8 58 14.4 81 81 W 3 6 29.91 1013 10 16 N/A
9:53 am 09:53 Cloudy 65 18.3 58 14.4 78 78 N N/A 29.97 1015 10 16 N/A
10:53 am 10:53 Cloudy 66 18.9 58 14.4 75 75 VRB 5 7 29.97 1015 10 16 N/A
11:53 am 11:53 Cloudy 69 20.6 58 14.4 68 68 VRB 5 7 29.96 1015 10 16 N/A
1:53 pm 13:53 Sunny 75 23.9 55 12.8 50 50 E 7 11 29.91 1013 10 16 N/A
2:53 pm 14:53 Sunny 78 25.6 55 12.8 45 45 NE 5 7 29.90 1012 10 16 N/A
3:53 pm 15:53 Sunny 78 25.6 55 12.8 45 45 E 5 7 29.90 1012 10 16 N/A
4:53 pm 16:53 Sunny 75 23.9 56 13.3 52 52 ENE 12 19 29.90 1013 10 16 N/A
5:53 pm 17:53 Sunny 73 22.8 56 13.3 55 55 ENE 8 13 29.91 1013 10 16 N/A
6:53 pm 18:53 Clear 66 18.9 57 13.9 73 73 ENE 8 13 29.94 1014 10 16 N/A
7:53 pm 19:53 Clear 62 16.7 56 13.3 80 80 undefined N/A 29.98 1015 10 16 N/A
8:53 pm 20:53 Clear 60 15.6 55 12.8 84 84 E 6 9 30.01 1016 10 16 N/A
9:53 pm 21:53 Clear 58 14.4 54 12.2 87 87 ENE 5 7 30.02 1017 10 16 N/A
10:53 pm 22:53 Clear 57 13.9 53 11.7 87 87 NNE 5 7 30.05 1018 10 16 N/A
11:53 pm 23:53 Clear 54 12.2 52 11.1 93 93 N 5 7 30.06 1018 10 16 N/A

Powered by AerisWeather